Location: Chervonnoye
(48.6000°N, 34.4000°E)
Time: 05:22:19
(UTC+00:00)

CSL-04 Debris - Pass Details

Date: 23 November 2020
Orbit: 826 x 849 km, 98.9° (Epoch: 18 January)

Event Time Altitude Azimuth Distance (km) Brightness Sun altitude
Exits shadow 16:10:15 34° 130° (SE) 1,369 4.9 -22.0°
Maximum altitude 16:12:27 57° 69° (ENE) 1,000 4.2 -22.3°
Drops below altitude 10° 16:17:51 10° 352° (N) 2,485 6.7 -23.2°
Sets 16:20:15 0° 349° (NNW) 3,424 7.4 -23.6°
